Regional Weather Roundup
Issued by NWS Charleston, SC

Current Version | Previous Version | Graphics & Text | Print | Product List | Glossary On
Versions: 1 2 3 4 5 6 7 8 9 10 11 12 13 14 15 16 17 18 19 20 21 22 23 24 25 26 27 28 29 30 31 32 33 34 35 36 37 38 39 40 41 42 43 44 45 46 47 48 49 50
000 ASUS42 KCHS 272326 RWRCHS REGIONAL WEATHER ROUNDUP NATIONAL WEATHER SERVICE CHARLESTON SC 600 PM EST FRI FEB 27 2015 NOTE: "FAIR" INDICATES FEW OR NO CLOUDS BELOW 12,000 FEET WITH NO SIGNIFICANT WEATHER AND/OR OBSTRUCTIONS TO VISIBILITY. NOT ALL STATIONS ARE QUALITY CONTROLLED BY THE NATIONAL WEATHER SERVICE. USE DATA WITH CAUTION...ESPECIALLY DEWPOINT OBSERVATIONS. SCZ027-030-031-034>040-042>050-280000- ...SOUTHEAST SOUTH CAROLINA... CITY SKY/WX TMP DP RH WIND PRES REMARKS N CHARLESTON CLOUDY 46 34 62 E6 30.37R WATERFRONT PRK N/A 46 N/A N/A E10G16 N/A MOUNT PLEASANT LGT RAIN 45 36 70 CALM 30.39R PINOPOLIS N/A 55 36 47 MISG 30.29R MONCKS CORNER FAIR 48 36 61 CALM 30.37R SUMMERVILLE FAIR 48 36 61 CALM 30.38R BEAUFORT MCAS CLOUDY 47 36 65 E5 30.36R BEAUFORT ARPT FAIR 45 37 76 CALM 30.37R HILTON HEAD IS MOCLDY 46 37 71 NE7 30.37R WALTERBORO MOCLDY 50 36 57 CALM 30.37R ALLENDALE FAIR 52 37 58 CALM 30.35R ...SOUTHERN MIDLANDS AND PEE DEE... CITY SKY/WX TMP DP RH WIND PRES REMARKS GEORGETOWN NOT AVBL KINGSTREE NOT AVBL ORANGEBURG CLEAR 52 32 46 E5 30.35R BARNWELL FAIR 52 36 54 E3 30.36R AIKEN FAIR 52 34 50 N3 30.38R MANNING FAIR 48 36 61 NE3 30.37R COLUMBIA PTCLDY 52 32 46 W5 30.35R SUMTER CLEAR 51 34 52 E6 30.35R FLORENCE CLEAR 50 31 48 NE7 30.37R MYRTLE BEACH CLEAR 46 34 61 SE5 30.40R N MYRTLE BEACH MOCLDY 45 35 68 SE5 30.38R $$ GAZ063-065-086>088-099>101-113>116-118-119-134>141-150-280000- ...SOUTHEAST GEORGIA... CITY SKY/WX TMP DP RH WIND PRES REMARKS SAVANNAH ARPT CLOUDY 48 35 60 E10 30.35R HUNTER AAF CLOUDY 47 36 65 E10 30.33R FORT STEWART CLOUDY 50 37 62 E3 30.32R STATESBORO MOCLDY 49 39 67 E3 30.35R SYLVANIA PTCLDY 50 40 68 CALM 30.36R CLAXTON FAIR 50 39 66 CALM 30.35R ...CSRA...CENTRAL AND FAR SOUTHEAST GEORGIA... CITY SKY/WX TMP DP RH WIND PRES REMARKS THOMSON CLEAR 54 41 62 NE6 30.39R AUGUSTA-BUSH CLEAR 55 32 41 CALM 30.34R AUGUSTA-DANIEL CLEAR 56 32 40 N5 30.34R SWAINSBORO FAIR 54 30 40 CALM 30.34R VIDALIA PTCLDY 52 39 62 E5 30.33S EASTMAN FAIR 54 39 58 CALM 30.36R HAZLEHURST FAIR 53 41 65 NE5 30.33R ALMA CLOUDY 50 37 61 VRB3 30.32R WAYCROSS CLOUDY 53 40 63 E3 30.33R JESUP FAIR 50 41 71 SE3 30.35R BAXLEY FAIR 52 39 62 CALM 30.33R BRUNSWICK CLOUDY 46 34 61 NE6 30.35R SAINT SIMONS CLOUDY 47 36 65 NE14G20 30.33S $$ SCZ027-028-034-036>038-045-046-048>050-GAZ119-141-280000- ...LAKE AND SUPPLEMENTAL COASTAL OBSERVATIONS... STATION/POSITION TIME TEMP WIND PRES WAVE SWELL AIR SEA DIR/SP/G HT/PER HT/PER/DIR (UTC) (F) (DEG/KT/KT) (MB) (FT/S) (FT/S/D) UPR LAKE MARION NOT AVBL WINYAH BAY 2200 45 90/ 6 1027.0S LAKE MURRAY 2300 52 200/ 1/ 2 1027.4R ACE BASIN NERRS NOT AVBL FORT PULASKI 2200 47 49 50/ 10/ 13 1028.0F SAPELO ISLAND 2300 47 40/ 7 1027.0S $$ ANZ835-935-AMZ111-154-330-350-352-354-370-450-454-472-280000- ...C-MAN AND BUOY OBSERVATIONS... STATION/POSITION TIME TEMP WIND PRES WAVE SWELL AIR SEA DIR/SP/G HT/PER HT/PER/DIR (UTC) (F) (DEG/KT/KT) (MB) (FT/S) (FT/S/D) BUOY 41004 2250 51 66 40/ 17/ 21 1027.3R 5/ 6 2/ 8 BUOY 41008 2250 49 52 40/ 19/ 23 1026.6R 5/ 6 2/120/11 FOLLY BEACH CMAN 2300 46 60/ 11/ 13 1028.8R CAPERS NEARSHORE NOT AVBL FRIPP NEARSHORE 2200 47 70/ 12/ 16 1026.5F STATION/POSITION TIME TEMP WIND PRES WAVE SWELL AIR SEA DIR/SP/G HT/PER HT/PER/DIR (UTC) (F) (DEG/KT/KT) (MB) (FT/S) (FT/S/D) 5E ST. MARYS GA 2221 53 N/A 5/ 6 2/100/12 FRYING PAN BUOY 2250 48 62 40/ 16/ 19 1028.9R 4/11 3/ 90/11 BUOY 41025 NOT AVBL CAPE LOOKOUT NC 2300 44 40/ 13/ 17 1029.3R BUOY 41002 2250 63 70 360/ 17/ 21 1025.0R 11/11 8/ 20/11 BUOY 41010 2220 66 73 50/ 19/ 23 1021.7S ST AUGUSTINE FL 2300 51 360/ 22/ 26 1025.8R $$

USA.gov is the U.S. government's official web portal to all federal, state and local government web resources and services.